Regional Weather Roundup
Issued by NWS Grand Forks, ND

Home | Current Version | Previous Version | Text Only | Print | Product List | Glossary Off
Versions: 1 2 3 4 5 6 7 8 9 10 11 12 13 14 15 16 17 18 19 20 21 22 23 24 25 26 27 28 29 30 31 32 33 34 35 36 37 38 39 40 41 42 43 44 45 46 47 48 49 50

000
ASUS43 KFGF 210931
RWRFGF
PRAIRIE TO PINES  WEATHER ROUNDUP
NATIONAL WEATHER SERVICE EASTERN NORTH DAKOTA/GRAND FORKS ND
400 AM CDT TUE OCT 21 2014

 **SATELLITE DATA USED TO AUGMENT SKY COVER AT AUTOMATED STATIONS**
 *****  WEATHER ACROSS EASTERN NORTH DAKOTA  *****

CITY           SKY/WX    TMP DP  RH WIND       PRES   REMARKS
GRAND FORKS    CLEAR     39  36  89 SE9       30.04F
GRAND FRKS AFB CLEAR     38  38  99 S8        30.04F
GRAND FRKS NWS   N/A     39 N/A N/A S14         N/A
DEVILS LAKE    CLEAR     46  36  66 SE15      29.95F
FARGO          CLEAR     45  38  76 SE15      30.05F
WAHPETON ARPT  SUNNY     39  34  81 SE8       30.08S
$$

 ***** WEATHER ACROSS CENTRAL AND WESTERN NORTH DAKOTA  *****

CITY           SKY/WX    TMP DP  RH WIND       PRES   REMARKS
BISMARCK       CLEAR     54  35  48 SE10      29.88F
MINOT          CLEAR     51  34  52 SE10      29.85F
JAMESTOWN      CLEAR     46  38  73 SE12      29.98F
MINOT AFB      CLEAR     41  36  84 SE9       29.85S
GARRISON         N/A     50  36  58 SE8       29.86F
WILLISTON      CLEAR     39  36  89 CALM      29.78F
DICKINSON      CLEAR     42  36  79 SE9       29.80F
HETTINGER      CLEAR     43  37  79 CALM      29.83F
$$

 *****  OTHER AIRPORT OBSERVATIONS IN OUR AREA  *****

CITY           SKY/WX    TMP DP  RH WIND       PRES   REMARKS
WALHALLA       FAIR      41  39  93 S13G18    30.01S
GRAFTON AIRPOR FAIR      36  36 100 SE8       30.04S
VALLEY CITY AR FAIR      43  39  87 S9        30.01F
CANDO          FAIR      45  39  81 SE12      29.96F
CAVALIER APRT  FAIR      39  36  87 S6        30.03S
GWINNER        SUNNY     41  36  81 SE8       30.04S
SHEYENNE NWR     N/A     39  35  86 SE6       29.95
ROLLA          FAIR      41  41 100 S8        29.96S
 ***** THE ABOVE OBSERVATIONS ARE NON NWS ARE NOT QUALITY
       CONTROLLED AND MAY MIS-REPORT RAIN FOR SNOW...
$$

  *****  WEATHER ACROSS NORTHERN MINNESOTA  *****

CITY           SKY/WX    TMP DP  RH WIND       PRES   REMARKS
FLAG ISLAND    CLEAR     43  37  81 SE18G24   30.11S
WARROAD        CLEAR     36  32  87 SE6       30.12S
ROSEAU         CLEAR     37  34  87 SE8       30.10S
HALLOCK        CLEAR     39  37  93 SE12      30.05S
THF RVR FALLS  CLEAR     37  36  93 E9        30.08F
BAUDETTE       CLEAR     35  32  88 SE6       30.13F
WASKISH        CLEAR     30  30 100 CALM      30.13S
CROOKSTON      CLEAR     39  37  93 SE9       30.07F
STEPHEN NDAWN    N/A     39  37  93 SE9         N/A
GREENBUSH NDAW   N/A     39  37  93 SE9         N/A
$$
  *****  WEATHER ACROSS CENTRAL AND WEST MINNESOTA  *****

CITY           SKY/WX    TMP DP  RH WIND       PRES   REMARKS
FOSSTON        CLEAR     37  34  87 SE7       30.09S
BEMIDJI        CLEAR     33  32  97 SE6       30.12S
PARK RAPIDS    CLEAR     34  33  96 SE5       30.12S
ELBOW LAKE     FAIR      42  38  86 SE10      30.09S
WADENA         CLEAR     36  34  93 E7        30.11F
DETROIT LAKES  CLEAR     41  37  87 SE9       30.10F
MOORHEAD       CLEAR     43  43 100 SE8       30.07S
FERGUS FALLS   CLEAR     43  36  75 SE10      30.10S
MORRIS MN      CLEAR     41  37  87 E9        30.08S
STAPLES        CLEAR     34  34 100 CALM      30.13S
$$
  *****  WEATHER ELSEWHERE ACROSS MINNESOTA  *****

CITY           SKY/WX    TMP DP  RH WIND       PRES   REMARKS
DULUTH         CLOUDY    43  36  76 E12       30.16R
INTRNTL FALLS  CLOUDY    40  34  79 SE7       30.16S
ELY            CLOUDY    39  32  75 E5        30.17S
CLOQUET        CLOUDY    43  37  81 E7        30.16S
WHEATON        CLEAR     34  30  86 SE9       30.09S
BRAINERD       FOG       30  30 100 CALM      30.15S VSB 3/4
HIBBING        CLOUDY    38  33  82 CALM      30.16R
ALEXANDRIA     CLEAR     40  37  89 E10       30.12S
SAINT CLOUD    CLEAR     41  36  82 E3        30.14R
MINNEAPOLIS    CLEAR     40  37  89 N3        30.14S
$$

  *****  WEATHER ACROSS SOUTH DAKOTA  *****

CITY           SKY/WX    TMP DP  RH WIND       PRES   REMARKS
SIOUX FALLS    CLEAR     37  33  85 NE6       30.07S
BROOKINGS      NOT AVBL
WATERTOWN      CLEAR     44  37  76 SE5       30.05F
HURON          CLEAR     46  36  68 SE9       30.01F
SISSETON         N/A     35  33  92 S6        30.06R
ABERDEEN       CLEAR     45  38  76 SE8       29.99F
MITCHELL       CLEAR     47  37  68 SE9       30.03F
PIERRE         CLEAR     54  39  57 SE13      29.89F
MOBRIDGE       CLEAR     55  37  50 SE14      29.85F
RAPID CITY     CLEAR     51  41  68 SE9       29.85F
$$

  *****  SOME WEATHER IN NEARBY STATES *****

CITY           SKY/WX    TMP DP  RH WIND       PRES   REMARKS
GLASGOW MT     CLEAR     49  37  63 E12       29.70F
GREAT FALLS MT CLEAR     61  34  36 S14       29.67F
CHEYENNE WY    CLEAR     44  34  67 W10       30.06F
SCOTTSBLUFF NE CLEAR     50  41  71 SE8       29.98F
OMAHA NE       CLEAR     44  40  85 SE6       30.09S
DES MOINES IA  CLEAR     46  42  86 N3        30.09R
DAVENPORT IA   CLEAR     38  35  89 N3        30.08S
CHICAGO IL     CLOUDY    50  40  68 N10       30.02R
EAU CLAIRE WI  CLEAR     33  32  96 CALM      30.14R FOG
LA CROSSE WI   CLEAR     40  37  89 CALM      30.13R
$$

  *****  SOME NATIONAL WEATHER *****

CITY           SKY/WX    TMP DP  RH WIND       PRES   REMARKS
LA GUARDIA NY  CLOUDY    55  45  68 S5        29.90F
RALEIGH NC     PTCLDY    55  50  83 CALM      29.92S
ATLANTA GA     CLEAR     54  50  86 NW5       29.99F
NEW ORLEANS LA PTCLDY    61  54  77 CALM      30.00S
OKLAHOMA CITY  CLEAR     60  58  92 S5        30.05S FOG
ALBUQUERQUE NM PTCLDY    54  47  77 NW5       30.16F
SALT LAKE CITY MOCLDY    63  40  42 SE12      29.89F
LOS ANGELES CA PTCLDY    64  63  94 E6        29.89F
BOISE ID       CLOUDY    53  44  71 NW12      29.89R
SEATTLE WA     LGT RAIN  54  50  86 SE8       29.83R
$$

*** WEATHER ACROSS MANITOBA...SASKATCHEWAN AND ONTARIO ***
                ***ONTARIO***

CITY           SKY/WX    TMP DP  RH WIND       PRES   REMARKS
GERALDTON      CLEAR     25  25 100 CALM      30.22R
THUNDER BAY    PTCLDY    30  28  93 W3        30.23R
SIOUX LOOKOUT  CLOUDY    36  32  87 SE9G17    30.18S
TORONTO        CLOUDY    50  48  93 W5        29.78S
BIG TROUT LK   CLOUDY    34  30  86 S13G22    30.17R WCI  25
PICKLE LAKE    NOT AVBL
DRYDEN         CLOUDY    37  32  81 S8        30.16S
KENORA         MOCLDY    39  36  87 SE10      30.13S
$$
                *** MANITOBA***

CITY           SKY/WX    TMP DP  RH WIND       PRES   REMARKS
BRANDON        CLEAR     43  39  87 SE9       29.91F
DAUPHIN        CLEAR     36  36 100 N6        29.83F
ISLAND LAKE    CLOUDY    37  36  93 S13G18    30.03F
PILOT MOUND      N/A     41  37  87 SE14        N/A
THE PAS        CLEAR     41  41 100 SE13      29.70
THOMPSON       MOCLDY    37  36  93 S9        29.80F
WINNIPEG       CLEAR     39  36  87 SE13      30.04S
LYNN LAKE      CLOUDY    41  39  93 S9        29.65F
CHURCHILL      CLOUDY    36  34  93 S22G35    29.81F
GILLAM         CLOUDY    36  34  93 S12G17    29.92F
$$
                ***SASKATCHEWAN***

CITY           SKY/WX    TMP DP  RH WIND       PRES   REMARKS
ESTEVAN        CLEAR     48  39  71 SE9       29.78F
KINDERSLEY     PTCLDY    43  36  75 S10       29.61R
LLOYDMINSTER   CLEAR     46  32  57 S15       29.49
PRINCE ALBERT  PTCLDY    34  34 100 E6        29.60S
REGINA         CLEAR     45  41  87 SE13      29.72S
YORKTON        CLEAR     45  37  76 S12G18    29.75F
N. BATTLEFORD  CLEAR     48  36  61 S9        29.57F
LA RONGE       CLEAR     41  41 100 NE3       29.57S
SASKATOON      CLEAR     48  41  76 S8        29.62S
SWIFT CURRENT  CLEAR     50  41  71 S12G17    29.66S
$$
NOTE: THESE ARE AUTOMATED STATIONS WITH LIMITED QUALITY CONTROL
      "FAIR" INDICATES FEW OR NO CLOUDS BELOW 12,000 FEET WITH NO
      SIGNIFICANT WEATHER AND/OR OBSTRUCTIONS TO VISIBILITY.
      SKY/WX - SKY CONDITION AND SIGNIFICANT WEATHER.
      TMP - AIR TEMPERATURE.    DP   - DEWPOINT TEMPERATURE.
      RH  - RELATIVE HUMIDITY.  PRES - PRESSURE.
      HX  - HEAT INDEX.         WCI  - WIND CHILL INDEX.
$


USA.gov is the U.S. government's official web portal to all federal, state and local government web resources and services.